sat.trackr.live / text

‹ back to catalog

PLATERO

NORAD 58262 · 2023-174G

PAYLOAD ACTIVE UNKNOWN

§ Identity

Operator
Country
SPN
Launch date
2023-11-11
Launch site
AFWTR
Launch vehicle
Mass (kg)
RCS (m²)

External: N2YO · Heavens-Above · Gunter

§ Orbital elements

Epoch: 2026-09-21T20:15:33.919776Z

Period
91.67 min
Inclination
97.3921°
Eccentricity
0.0004480
Mean motion
15.70792553 rev/d
Perigee alt
353.6 km
Apogee alt
359.6 km
Semi-major
6,734.8 km
B*
2.9979e-4
RAAN
7.9136°
Arg perigee
94.8471°
Mean anomaly
265.3303°
Rev number
16,132

§ Raw data

PLATERO1 58262U 23174G   26264.84414259  .00037165  00000+0  29979-3 0  99972 58262  97.3921   7.9136 0004480  94.8471 265.3303 15.70792553161320

JSON: /api/v1/satellites/58262 · /tle

For live sub-satellite position, see the globe view (requires WebGL).

§ Visibility from observer

Set your observer location to see the next 7 days of passes ≥ 10°. The values pass through the URL so the page stays shareable.

No JS? Fill the form by hand. The geolocation button needs JavaScript.

§ Radio — SatNOGS DB

ModeDescriptionDownlinkUplink
QPSK S-band TT&C transceiver (operator-provided) 2.218 GHz 2.050 GHz

1 transmitter · refreshed weekly from db.satnogs.org